NOAA 16 DEB, 41142

Orbit data source: Space-Track

NOAA 16 DEB, 41142 is space debris in SSO originally from a launch on Thu, 21 Sep 2000 UTC launched from the Air Force Western Test Range (AFWTR). Debris objects in space refer to the collection of defunct objects orbiting the Earth. Examples of debris include non-operational satellites, rocket bodies, and fragments generated from explosions, collisions, or faulty payload assembly.

Loading next visibility...
Identifier
41142, 2000-055BZ
Orbit
SSO
Country
Flag of USUS
Related business
Manufacturer
Unknown
Mission
Spacecraft
Bus & Motor
Unknown
Mass
Unknown
Launch date (UTC)
2000-09-21 (25 years ago)
Launch vehicle
Unknown
Launch site
Air Force Western Test Range (AFWTR)
Object type
Payload
Rocket body
Debris
Shape & HBR
Unknown shape, 0.1 m
Radar Cross Section
Small (<0.1 m²)

Expand to show TLE details & history
Last TLE update: 1 day ago

TLE from 1 day ago
0 NOAA 16 DEB
1 41142U 00055BZ  25340.02271171  .00075876  00000-0  74923-2 0  9997
2 41142  98.8490 180.3473 0017295 122.9973 237.2908 14.91467601524680
Epoch: 2025-12-06T00:32Z
TLE epoch observation values (Epoch: 2025-12-06T00:32:42.291Z)
Latitude
0.00004°
Longitude
97.11467°
Altitude
602.897 km
Speed
7.555 km/s
True Right ascension
12h 01m 23s
True Declination
0° 00' 00"
Sunlit
Object was in daylight at epoch
Visualization orbit readout
Latitude
Unknown
Longitude
Unknown
Altitude
Unknown
Speed
Unknown
Apparent Right ascension
Unknown
Apparent Declination
Unknown
Sunlit
N/A
Visualization observer readout
Local Sidereal Time
22:39:27
Azimuth
Unknown
Elevation
Unknown
Doppler factor
Unknown
Orbital elements
Apogee altitude
602.481 km
Perigee altitude
578.377 km
Semi-major axis
6,968.566 km
Eccentricity
0.00173
Inclination
98.849°
RAAN
180.3473°
Arg. of periapsis
122.9973°
True anomaly
237.12424°
Mean anomaly
237.2908°
Eccentric anomaly
237.2075°
Mean motion
3.73102 °/min
Orbital period
96.49 mins
BSTAR
0.0074923
Loading maneuver chart data...
Computing Atmospheric mass density...
Loading historical data...
Loading historical data...
Loading historical data...
Loading historical data...
Loading historical data...
Loading historical data...
Loading historical data...

Documentation

Showing up to 5 results
|